TimeCDT,TemperatureF,Dew PointF,Humidity,Sea Level PressureIn,VisibilityMPH,Wind Direction,Wind SpeedMPH,Gust SpeedMPH,PrecipitationIn,Events,Conditions,WindDirDegrees,DateUTC
12:53 AM,63.0,50.0,63,29.99,10.0,SE,12.7,-,N/A,,Clear,130,2013-06-03 05:53:00
1:53 AM,62.1,48.9,62,29.97,10.0,SE,13.8,-,N/A,,Clear,130,2013-06-03 06:53:00
2:53 AM,61.0,48.9,64,29.95,10.0,SE,11.5,-,N/A,,Clear,140,2013-06-03 07:53:00
3:53 AM,61.0,51.1,70,29.94,10.0,SSE,11.5,-,N/A,,Clear,150,2013-06-03 08:53:00
4:53 AM,60.1,51.1,72,29.94,10.0,SSE,9.2,-,N/A,,Clear,160,2013-06-03 09:53:00
5:53 AM,59.0,51.1,75,29.93,10.0,South,8.1,-,N/A,,Clear,170,2013-06-03 10:53:00
6:53 AM,61.0,54.0,78,29.94,10.0,SSE,11.5,-,N/A,,Clear,160,2013-06-03 11:53:00
7:53 AM,62.1,55.0,78,29.94,10.0,SSE,15.0,-,N/A,,Clear,150,2013-06-03 12:53:00
8:53 AM,64.9,55.0,70,29.96,10.0,SSE,13.8,-,N/A,,Clear,160,2013-06-03 13:53:00
9:53 AM,69.1,55.0,61,29.95,10.0,South,18.4,-,N/A,,Clear,170,2013-06-03 14:53:00
10:53 AM,72.0,55.0,55,29.93,10.0,SSE,17.3,-,N/A,,Clear,160,2013-06-03 15:53:00
11:53 AM,78.1,54.0,43,29.91,10.0,SSE,17.3,26.5,N/A,,Clear,160,2013-06-03 16:53:00
12:53 PM,82.9,55.0,38,29.88,10.0,South,21.9,28.8,N/A,,Clear,170,2013-06-03 17:53:00
1:53 PM,84.9,55.0,36,29.85,10.0,South,24.2,32.2,N/A,,Clear,170,2013-06-03 18:53:00
2:53 PM,87.1,55.0,33,29.82,10.0,South,17.3,35.7,N/A,,Clear,170,2013-06-03 19:53:00
3:53 PM,89.1,54.0,30,29.79,10.0,South,19.6,28.8,N/A,,Clear,170,2013-06-03 20:53:00
4:53 PM,90.0,53.1,28,29.76,10.0,SSE,21.9,28.8,N/A,,Clear,160,2013-06-03 21:53:00
5:53 PM,91.0,53.1,27,29.74,10.0,South,21.9,32.2,N/A,,Clear,170,2013-06-03 22:53:00
6:53 PM,89.1,54.0,30,29.73,10.0,SE,25.3,33.4,N/A,,Clear,140,2013-06-03 23:53:00
7:53 PM,84.9,55.9,37,29.72,10.0,SE,21.9,-,N/A,,Clear,140,2013-06-04 00:53:00
8:53 PM,80.1,57.0,45,29.73,10.0,SE,18.4,-,N/A,,Clear,140,2013-06-04 01:53:00
9:53 PM,78.1,55.9,46,29.73,10.0,SSE,21.9,27.6,N/A,,Clear,150,2013-06-04 02:53:00
10:53 PM,77.0,54.0,45,29.73,10.0,SSE,24.2,32.2,N/A,,Clear,150,2013-06-04 03:53:00
11:53 PM,75.0,57.0,53,29.87,10.0,North,21.9,31.1,N/A,,Scattered Clouds,350,2013-06-04 04:53:00